Wind_Speed
14 14 13 12 11 9 9 8 8 6 3 1 2 3 4 5 6 8 10 11 12 12 12 13 13 12 12 12 13 12 12 13 14 15 16 16 17 17 18 18 18 18 17
15 15 14 13 13 12 11 10 9 6 4 2 2 4 6 8 9 10 11 11 11 11 10 11 11 11 12 12 12 12 12 13 14 15 16 17 18 19 19 19 20 20 19
15 17 15 15 15 13 11 11 8 5 4 4 4 6 8 9 11 12 12 12 12 12 13 13 12 11 11 12 13 13 14 15 15 16 17 18 19 20 19 19 20 19 18
15 17 14 13 13 12 11 9 7 5 5 5 5 7 9 11 12 13 13 14 14 14 14 13 13 12 12 13 13 14 15 16 17 18 19 19 20 20 21 20 19 19 19
16 19 15 13 11 11 10 9 7 6 6 6 7 8 10 12 14 16 15 14 14 14 14 14 13 13 13 14 14 15 16 17 18 18 19 19 20 20 21 21 21 20 21
19 19 16 14 12 11 9 9 9 8 7 8 8 10 12 14 16 16 16 16 15 15 14 15 14 14 15 16 17 18 18 19 19 19 20 20 21 21 21 21 22 21 22
20 18 17 15 13 12 10 9 9 10 11 11 11 12 14 16 17 17 17 17 16 16 15 15 15 15 16 18 19 19 20 21 21 22 23 24 24 24 25 24 23 23 23
21 19 18 16 14 13 11 10 9 10 11 12 14 17 17 18 18 18 18 17 16 16 16 16 16 16 18 18 19 20 22 22 22 23 24 24 24 24 25 25 24 23 23
23 21 18 16 14 13 13 12 11 11 11 12 13 16 19 21 20 19 18 17 16 16 16 17 17 18 18 20 22 22 22 22 22 23 24 24 24 25 26 26 25 24 24
23 21 19 18 17 15 15 15 14 14 13 13 14 15 18 20 20 19 18 18 17 17 17 18 18 19 20 21 22 24 24 25 25 26 26 26 26 26 27 28 27 26 26
23 22 21 20 19 18 17 17 17 17 16 15 16 18 18 19 19 19 19 19 18 18 18 19 19 20 21 22 23 24 25 27 27 28 29 29 29 28 28 29 30 29 28
28 26 24 23 21 21 20 19 18 18 19 18 18 19 20 19 20 20 20 20 20 20 21 20 21 23 24 24 25 26 27 28 30 30 31 30 30 31 31 30 31 30 29
28 27 26 24 24 23 22 21 20 20 20 21 20 21 21 21 21 21 21 22 22 21 21 22 23 24 25 25 26 27 29 30 31 32 34 34 33 32 32 33 32 32 31
31 28 26 26 25 25 24 24 23 23 22 22 22 23 22 23 23 22 21 21 21 22 21 23 24 26 28 28 29 31 32 33 32 33 34 34 35 35 35 36 35 34 33
32 31 30 30 29 28 28 26 26 26 25 24 24 24 24 24 25 24 22 23 24 23 24 25 26 27 29 31 32 33 34 35 36 35 35 35 36 37 37 37 37 38 37
35 34 33 33 32 31 30 28 28 28 26 26 26 25 26 26 25 25 25 26 26 26 26 28 29 30 31 32 33 34 37 38 38 38 38 38 38 39 39 38 39 40 40
40 38 37 36 35 32 30 30 30 29 28 27 28 27 27 27 26 27 27 28 29 28 29 30 31 32 34 35 37 38 39 40 41 40 40 40 41 41 42 41 40 40 41
40 38 38 38 36 35 34 33 32 31 30 30 30 30 30 28 27 28 29 30 31 30 31 32 34 35 36 39 40 42 43 43 43 41 41 42 42 43 43 45 46 44 43
43 42 41 40 39 37 35 35 35 34 33 33 33 32 32 30 30 30 30 32 32 33 34 35 36 37 39 42 43 43 44 43 43 44 44 45 46 47 47 47 48 48 48
46 43 41 40 38 38 39 38 36 35 35 35 34 33 34 33 33 33 33 34 35 36 36 37 38 40 43 44 45 45 44 44 43 43 45 46 48 48 49 48 50 50 49
52 48 45 42 41 41 40 40 40 39 37 36 35 36 36 35 36 36 36 37 38 38 38 40 41 43 45 47 47 45 45 45 45 45 45 46 47 49 50 51 51 50 49
54 49 47 46 45 43 43 42 42 40 38 37 37 37 37 37 38 38 39 40 41 41 40 41 44 46 48 48 48 47 46 46 46 46 47 48 48 49 50 49 50 53 53
51 52 48 46 44 44 44 43 43 41 39 39 39 39 39 40 41 41 42 42 42 41 41 45 49 50 50 47 48 49 49 47 47 46 47 46 47 48 48 49 51 53 55
45 48 49 48 46 44 43 43 43 42 41 40 40 40 41 43 44 44 44 43 41 42 45 48 51 51 49 48 48 47 47 48 48 48 45 45 45 44 47 51 54 57 60
48 47 48 47 46 46 45 45 44 43 43 43 43 43 43 44 45 47 45 42 43 45 48 50 51 50 48 48 47 47 47 47 43 42 39 41 44 47 48 52 56 58 61
48 47 46 46 47 47 47 47 47 47 46 45 44 44 44 45 46 44 43 43 45 48 49 51 51 49 48 48 48 49 48 43 42 40 42 44 46 47 48 52 56 59 62
Wind_Direction
235 239 240 243 248 259 265 273 274 273 272 303 25 7 359 7 358 353 343 336 333 332 329 326 324 320 316 314 314 315 314 313 313 314 314 314 311 310 308 306 305 304 303
236 243 251 256 263 266 268 270 267 265 274 303 333 340 341 344 341 334 328 328 329 329 330 329 325 320 316 313 312 314 312 311 310 310 309 310 310 307 308 307 306 305 303
239 245 259 266 265 265 263 262 260 264 282 294 325 340 339 336 331 329 327 326 324 322 319 315 314 314 311 315 318 318 313 312 311 312 313 313 311 309 308 308 304 303 300
241 254 270 266 263 258 249 246 251 269 284 304 321 329 332 329 326 323 322 321 320 319 317 316 313 312 312 314 313 313 313 313 314 315 315 313 314 311 310 307 302 301 297
243 254 256 241 243 246 244 237 247 275 287 295 313 323 324 322 320 319 317 318 320 320 317 311 305 307 307 304 304 305 307 309 310 309 309 310 310 310 310 309 305 301 297
242 249 241 228 231 237 248 262 269 274 285 298 312 318 318 317 318 315 315 316 315 315 312 309 308 309 306 308 309 310 309 307 307 306 307 309 308 309 308 307 302 298 296
239 241 233 229 225 235 242 263 283 292 298 303 311 312 311 314 314 311 314 315 314 310 308 304 305 309 311 311 312 311 309 309 312 313 314 313 313 311 310 307 302 297 296
230 231 231 233 235 240 242 252 272 285 295 304 311 310 310 312 309 310 311 309 306 304 302 301 306 310 309 309 311 312 311 310 310 309 309 308 308 307 307 304 300 296 294
225 228 231 234 238 243 252 258 265 275 280 283 286 294 302 303 305 307 307 306 305 303 304 305 306 306 308 310 311 310 306 303 302 302 301 302 304 305 303 300 299 298 297
228 229 231 234 239 245 255 263 270 276 280 282 283 284 288 294 299 304 304 303 302 302 302 304 306 308 309 310 307 307 306 305 304 303 302 305 306 305 304 302 301 300 300
230 229 228 234 240 247 254 264 271 277 281 282 283 285 291 295 299 298 299 299 299 301 303 303 303 304 304 305 305 305 306 307 306 304 304 305 306 306 305 305 304 301 299
228 231 230 234 241 248 256 263 270 278 283 284 285 290 290 293 294 295 296 298 301 302 300 303 308 308 308 307 309 309 309 307 306 305 303 304 305 306 305 303 301 299 295
229 233 233 238 242 249 255 262 268 274 278 281 283 287 290 290 290 293 295 297 300 301 303 307 305 303 304 306 309 309 309 309 307 305 304 304 303 302 302 300 299 298 297
229 233 239 242 248 252 255 260 266 269 272 275 280 284 286 286 287 289 292 294 295 297 300 300 301 304 306 309 310 309 308 306 305 303 302 302 302 300 299 297 296 295 294
228 233 236 243 247 252 256 262 266 268 269 274 276 280 281 284 287 290 293 294 296 298 299 299 302 305 307 307 308 306 305 304 304 303 302 301 300 299 298 297 296 295 294
226 231 235 240 246 251 255 258 260 263 266 270 275 278 279 283 288 292 293 294 294 295 297 301 304 305 304 304 303 302 303 302 302 301 301 301 299 297 297 296 295 294 293
224 228 234 240 243 247 252 257 260 263 267 271 275 277 279 282 286 289 289 290 290 294 298 301 303 302 302 302 301 302 302 301 299 299 298 297 298 299 298 296 296 295 295
230 232 235 239 243 247 252 255 259 262 266 269 271 272 275 279 282 283 285 287 290 294 297 299 299 300 301 301 301 301 301 300 300 299 300 300 300 300 299 299 298 296 294
234 235 238 242 245 251 256 259 260 263 266 268 270 274 277 278 279 281 285 287 288 291 294 295 296 296 296 297 297 297 298 298 299 299 299 298 296 295 295 296 295 294 293
235 236 238 243 247 250 254 255 259 263 263 265 269 272 274 276 279 281 283 285 286 288 289 290 290 292 293 295 296 298 299 299 299 298 296 294 294 295 294 295 294 293 294
236 236 237 240 244 246 249 253 255 257 261 264 267 269 270 274 277 280 284 285 285 285 286 288 289 291 294 296 297 297 297 298 299 298 296 295 295 295 295 295 296 296 296
238 239 239 240 240 243 245 247 250 253 257 260 263 267 270 273 277 280 283 286 286 286 286 288 290 294 295 296 296 295 295 298 299 298 298 297 297 299 298 297 296 295 292
238 240 241 244 245 246 248 249 250 252 254 257 260 264 269 273 276 279 281 283 284 284 287 290 293 294 294 295 295 296 297 298 297 297 297 300 301 299 298 298 297 297 295
241 241 242 243 245 249 253 255 257 259 261 263 266 269 273 277 280 281 282 282 283 284 289 290 291 293 294 294 296 297 297 299 298 297 300 299 301 302 301 300 299 297 296
242 240 239 242 245 248 252 254 257 259 262 265 268 271 275 277 280 282 283 283 285 286 286 288 290 291 293 295 297 296 297 298 299 299 301 302 301 300 302 301 299 298 296
240 241 242 243 244 248 251 253 256 258 260 262 266 270 273 276 277 277 279 281 284 285 288 291 291 293 296 297 298 299 299 298 299 299 302 302 302 303 305 304 300 299 301
Height
5892 5893 5894 5895 5896 5897 5898 5900 5900 5900 5900 5900 5900 5900 5901 5900 5900 5900 5901 5900 5899 5899 5898 5898 5898 5897 5896 5895 5894 5894 5893 5892 5891 5890 5889 5888 5887 5886 5885 5884 5882 5880 5879
5891 5892 5894 5894 5895 5896 5897 5898 5899 5899 5899 5899 5899 5899 5900 5899 5899 5900 5899 5899 5898 5898 5897 5897 5896 5895 5893 5893 5892 5892 5891 5890 5889 5888 5887 5886 5885 5883 5883 5882 5881 5879 5877
5889 5890 5893 5893 5894 5895 5896 5897 5898 5898 5898 5898 5898 5898 5899 5899 5899 5899 5899 5898 5897 5896 5895 5895 5894 5893 5892 5891 5891 5890 5889 5888 5887 5886 5885 5884 5883 5882 5881 5880 5879 5876 5875
5888 5889 5891 5892 5893 5894 5895 5896 5897 5897 5897 5897 5897 5897 5898 5897 5898 5898 5898 5897 5896 5895 5894 5893 5893 5892 5890 5890 5889 5888 5887 5886 5885 5884 5883 5881 5880 5879 5878 5876 5876 5874 5872
5886 5887 5890 5891 5892 5893 5894 5895 5896 5896 5896 5896 5896 5896 5896 5896 5896 5896 5895 5894 5894 5893 5892 5892 5891 5890 5889 5888 5887 5886 5885 5883 5882 5881 5880 5878 5877 5876 5875 5874 5873 5871 5870
5883 5885 5887 5889 5890 5892 5892 5893 5893 5894 5894 5895 5894 5895 5895 5895 5894 5894 5894 5893 5892 5892 5891 5890 5889 5889 5887 5886 5885 5884 5882 5881 5880 5879 5878 5876 5875 5873 5872 5870 5869 5868 5866
5880 5882 5885 5887 5888 5890 5891 5892 5892 5892 5892 5893 5893 5894 5894 5893 5893 5892 5891 5891 5891 5890 5889 5888 5888 5886 5885 5884 5883 5881 5880 5878 5877 5876 5875 5873 5872 5870 5869 5868 5866 5864 5862
5877 5880 5882 5884 5886 5888 5889 5890 5891 5891 5891 5891 5891 5891 5891 5891 5891 5890 5890 5889 5888 5888 5887 5886 5885 5884 5883 5882 5881 5879 5877 5876 5875 5873 5872 5870 5869 5867 5866 5864 5863 5860 5858
5873 5876 5879 5880 5883 5885 5887 5888 5889 5890 5890 5891 5891 5890 5889 5888 5889 5888 5887 5887 5886 5885 5884 5884 5883 5882 5881 5880 5878 5877 5875 5874 5872 5870 5869 5867 5865 5864 5862 5860 5859 5857 5856
5869 5872 5875 5877 5879 5882 5884 5885 5886 5886 5887 5888 5888 5888 5887 5886 5886 5886 5885 5884 5883 5882 5882 5881 5880 5879 5877 5876 5875 5873 5872 5871 5869 5868 5866 5863 5861 5860 5858 5857 5856 5854 5853
5866 5868 5870 5874 5876 5878 5880 5881 5882 5883 5884 5885 5885 5885 5884 5883 5883 5883 5882 5881 5880 5880 5879 5879 5878 5876 5875 5874 5873 5871 5869 5867 5866 5864 5862 5860 5858 5857 5855 5854 5852 5851 5848
5860 5864 5866 5869 5872 5874 5876 5877 5879 5879 5880 5881 5882 5881 5881 5880 5880 5880 5879 5878 5878 5877 5876 5875 5874 5872 5871 5870 5868 5867 5864 5862 5860 5859 5857 5855 5854 5852 5851 5850 5847 5845 5843
5856 5860 5863 5866 5868 5870 5872 5874 5875 5876 5877 5878 5878 5878 5877 5877 5877 5876 5876 5875 5874 5873 5873 5871 5870 5869 5867 5866 5864 5862 5860 5858 5856 5853 5851 5850 5848 5847 5846 5844 5843 5840 5838
5851 5855 5859 5862 5864 5866 5869 5871 5872 5872 5873 5874 5874 5874 5874 5874 5873 5873 5872 5871 5870 5869 5869 5867 5866 5864 5863 5861 5859 5857 5855 5852 5851 5848 5846 5844 5842 5841 5839 5838 5836 5835 5832
5848 5851 5854 5856 5859 5861 5864 5866 5868 5868 5868 5869 5870 5870 5870 5869 5869 5868 5868 5867 5865 5865 5864 5862 5861 5860 5858 5856 5854 5852 5850 5847 5845 5842 5840 5839 5836 5834 5833 5831 5829 5828 5826
5842 5846 5849 5851 5854 5856 5859 5861 5862 5863 5864 5865 5865 5866 5865 5864 5864 5864 5863 5862 5860 5859 5858 5857 5855 5855 5852 5850 5848 5846 5843 5842 5839 5836 5835 5832 5829 5826 5825 5823 5821 5819 5818
5834 5839 5843 5846 5848 5850 5853 5855 5856 5858 5859 5860 5860 5860 5860 5859 5860 5860 5859 5857 5855 5854 5853 5852 5850 5848 5845 5844 5841 5839 5837 5835 5832 5830 5828 5825 5821 5819 5817 5815 5814 5812 5810
5830 5834 5837 5839 5842 5845 5847 5849 5850 5852 5854 5854 5854 5854 5854 5855 5854 5854 5853 5851 5850 5849 5848 5845 5843 5841 5839 5837 5835 5832 5830 5827 5825 5822 5820 5816 5813 5811 5809 5807 5805 5803 5802
5823 5825 5829 5833 5836 5839 5841 5842 5843 5845 5847 5847 5848 5848 5849 5849 5848 5848 5847 5846 5844 5842 5841 5839 5837 5835 5833 5831 5828 5826 5823 5821 5818 5814 5811 5808 5806 5803 5800 5798 5796 5794 5792
5815 5818 5822 5826 5830 5833 5835 5836 5838 5839 5840 5840 5842 5843 5842 5842 5842 5842 5841 5839 5838 5836 5834 5833 5831 5829 5826 5824 5821 5819 5816 5813 5811 5807 5803 5800 5796 5794 5791 5788 5785 5783 5782
5807 5811 5816 5820 5823 5826 5828 5829 5830 5832 5833 5834 5835 5836 5835 5835 5835 5834 5834 5832 5831 5829 5827 5825 5823 5821 5818 5815 5813 5811 5807 5805 5802 5798 5794 5792 5788 5785 5782 5778 5776 5774 5771
5801 5805 5808 5812 5815 5818 5821 5822 5824 5825 5827 5828 5829 5829 5829 5829 5828 5827 5826 5824 5823 5821 5820 5818 5815 5812 5810 5806 5803 5801 5800 5798 5793 5789 5785 5782 5779 5775 5772 5768 5765 5763 5760
5792 5797 5801 5803 5807 5809 5812 5814 5817 5819 5821 5821 5821 5821 5822 5822 5821 5819 5818 5816 5814 5813 5812 5809 5806 5803 5801 5798 5794 5791 5789 5789 5785 5782 5777 5773 5770 5766 5762 5758 5754 5750 5746
5784 5789 5793 5796 5798 5800 5803 5805 5807 5809 5811 5812 5812 5812 5811 5811 5810 5810 5809 5808 5806 5804 5803 5800 5796 5794 5791 5789 5786 5782 5778 5775 5773 5773 5770 5765 5760 5757 5753 5748 5742 5736 5731
5775 5780 5783 5786 5789 5792 5795 5797 5799 5801 5802 5803 5804 5803 5803 5802 5802 5800 5799 5798 5797 5795 5793 5791 5787 5784 5781 5778 5775 5772 5768 5765 5763 5760 5760 5756 5751 5746 5741 5736 5730 5724 5717
5768 5771 5775 5778 5781 5783 5786 5788 5791 5792 5794 5795 5795 5795 5795 5793 5792 5792 5791 5790 5788 5786 5783 5780 5777 5774 5771 5767 5764 5761 5758 5756 5753 5750 5749 5745 5741 5737 5730 5723 5716 5710 5702